2001,4,1,0,5,-4.96,01,0.00,06,0.13,01,-4.93,01,22.52,01,27.79,01
2001,4,1,0,10,-4.81,01,0.00,06,0.19,01,-4.53,01,22.59,01,27.71,01
2001,4,1,0,15,-4.85,01,0.00,06,0.22,01,-4.72,01,22.54,01,27.59,01
2001,4,1,0,20,-4.57,01,0.00,06,0.46,01,-4.15,01,22.62,01,27.31,01
2001,4,1,0,25,-4.34,01,0.00,06,0.55,01,-3.82,01,22.64,01,27.13,01
2001,4,1,0,30,-4.34,01,0.00,06,0.55,01,-3.79,01,22.66,01,27.01,01
2001,4,1,0,35,-4.40,01,0.00,06,0.47,01,-3.84,01,22.64,01,26.96,01
2001,4,1,0,40,-4.35,01,0.00,06,0.54,01,-3.85,01,22.67,01,26.84,01
2001,4,1,0,45,-4.34,01,0.00,06,0.33,01,-3.94,01,22.63,01,26.94,01
2001,4,1,0,50,-4.34,01,0.00,06,0.37,01,-3.96,01,22.61,01,26.90,01
2001,4,1,0,55,-4.20,01,0.00,06,0.31,01,-3.85,01,22.61,01,26.85,01
2001,4,1,1,0,-4.65,01,0.00,06,-0.12,01,-4.37,01,22.48,01,27.33,01
2001,4,1,1,5,-5.03,01,0.00,06,-0.50,01,-4.79,01,22.22,01,27.96,01
2001,4,1,1,10,-4.80,01,0.00,06,-0.37,01,-4.59,01,22.10,01,28.14,01
2001,4,1,1,15,-4.77,01,0.00,06,-0.22,01,-4.31,01,22.07,01,28.10,01
2001,4,1,1,20,-4.77,01,0.00,06,-0.19,01,-4.28,01,21.99,01,28.25,01
2001,4,1,1,25,-4.75,01,0.00,06,-0.04,01,-4.31,01,21.91,01,28.25,01
2001,4,1,1,30,-4.05,01,0.00,06,0.54,01,-3.77,01,22.02,01,27.88,01
2001,4,1,1,35,-3.89,01,0.00,06,0.81,01,-3.43,01,22.16,01,27.52,01
2001,4,1,1,40,-4.40,01,0.00,06,0.24,01,-3.99,01,22.07,01,27.99,01
2001,4,1,1,45,-4.80,01,0.00,06,-0.28,01,-4.59,01,21.82,01,28.67,01
2001,4,1,1,50,-4.78,01,0.00,06,-0.13,01,-4.55,01,21.74,01,28.62,01
2001,4,1,1,55,-4.77,01,0.00,06,-0.10,01,-4.59,01,21.72,01,28.63,01
2001,4,1,2,0,-4.79,01,0.00,06,-0.13,01,-4.75,01,21.61,01,28.76,01
2001,4,1,2,5,-4.52,01,0.00,06,0.39,01,-4.38,01,21.71,01,28.05,01
2001,4,1,2,10,-4.33,01,0.00,06,0.60,01,-4.34,01,21.85,01,27.61,01
2001,4,1,2,15,-4.19,01,0.00,06,0.83,01,-4.28,01,22.00,01,27.27,01
2001,4,1,2,20,-4.37,01,0.00,06,0.57,01,-4.45,01,21.94,01,27.61,01
2001,4,1,2,25,-4.77,01,0.00,06,0.02,01,-5.20,01,21.70,01,28.30,01
2001,4,1,2,30,-4.77,01,0.00,06,0.10,01,-5.13,01,21.60,01,28.35,01
2001,4,1,2,35,-4.65,01,0.00,06,0.17,01,-4.75,01,21.64,01,28.37,01
2001,4,1,2,40,-4.77,01,0.00,06,0.09,01,-4.89,01,21.53,01,28.61,01
2001,4,1,2,45,-4.72,01,0.00,06,0.04,01,-4.86,01,21.48,01,28.61,01
2001,4,1,2,50,-4.37,01,0.00,06,0.23,01,-4.63,01,21.48,01,28.56,01
2001,4,1,2,55,-4.31,01,0.00,06,0.19,01,-4.53,01,21.42,01,28.74,01
2001,4,1,3,0,-4.32,01,0.00,06,0.31,01,-4.39,01,21.40,01,28.58,01
2001,4,1,3,5,-4.31,01,0.00,06,0.38,01,-4.36,01,21.38,01,28.46,01
2001,4,1,3,10,-4.28,01,0.00,06,0.51,01,-4.31,01,21.42,01,28.38,01
2001,4,1,3,15,-3.93,01,0.00,06,0.56,01,-4.13,01,21.45,01,28.39,01
2001,4,1,3,20,-4.19,01,0.00,06,0.38,01,-4.26,01,21.38,01,28.48,01
2001,4,1,3,25,-4.35,01,0.00,06,0.42,01,-4.36,01,21.33,01,28.35,01
2001,4,1,3,30,-4.34,01,0.00,06,0.36,01,-4.44,01,21.32,01,28.26,01
2001,4,1,3,35,-4.04,01,0.00,06,0.74,01,-4.18,01,21.45,01,27.76,01
2001,4,1,3,40,-4.01,01,0.00,06,0.80,01,-4.10,01,21.57,01,27.50,01
2001,4,1,3,45,-4.34,01,0.00,06,0.65,01,-4.35,01,21.58,01,27.39,01
2001,4,1,3,50,-4.64,01,0.00,06,0.54,01,-4.47,01,21.58,01,27.35,01
2001,4,1,3,55,-4.67,01,0.00,06,0.34,01,-4.51,01,21.49,01,27.57,01
2001,4,1,4,0,-4.71,01,0.00,06,0.14,01,-4.63,01,21.40,01,27.70,01
2001,4,1,4,5,-4.77,01,0.00,06,0.08,01,-4.62,01,21.33,01,27.71,01
2001,4,1,4,10,-4.76,01,0.00,06,-0.09,01,-4.59,01,21.24,01,27.91,01
2001,4,1,4,15,-4.35,01,0.00,06,0.03,01,-4.37,01,21.16,01,27.97,01
2001,4,1,4,20,-3.91,01,0.00,06,0.49,01,-4.12,01,21.30,01,27.59,01
2001,4,1,4,25,-4.28,01,0.00,06,0.46,01,-4.38,01,21.37,01,27.51,01
2001,4,1,4,30,-4.41,01,0.00,06,0.46,01,-4.58,01,21.47,01,27.47,01
2001,4,1,4,35,-4.77,01,0.00,06,0.03,01,-5.21,01,21.40,01,27.76,01
2001,4,1,4,40,-4.77,01,0.00,06,-0.15,01,-5.31,01,21.32,01,27.92,01
2001,4,1,4,45,-4.77,01,0.00,06,-0.10,01,-5.01,01,21.30,01,28.08,01
2001,4,1,4,50,-4.63,01,0.00,06,0.07,01,-4.73,01,21.29,01,28.06,01
2001,4,1,4,55,-3.92,01,0.00,06,0.48,01,-3.97,01,21.40,01,27.87,01
2001,4,1,5,0,-4.22,01,0.00,06,0.19,01,-4.26,01,21.41,01,27.85,01
2001,4,1,5,5,-4.78,01,0.00,06,-0.13,01,-4.95,01,21.34,01,28.09,01
2001,4,1,5,10,-5.57,01,0.00,06,-0.74,01,-6.06,01,21.17,01,28.50,01
2001,4,1,5,15,-5.30,01,0.00,06,-0.50,01,-5.76,01,21.14,01,28.53,01
2001,4,1,5,20,-4.90,01,0.00,06,-0.60,01,-5.40,01,21.09,01,28.62,01
2001,4,1,5,25,-5.09,01,0.00,06,-0.62,01,-5.36,01,21.10,01,28.39,01
2001,4,1,5,30,-4.79,01,0.00,06,-0.33,01,-4.83,01,21.31,01,27.64,01
2001,4,1,5,35,-4.22,01,0.00,06,-0.43,01,-4.08,01,21.45,01,27.63,01
2001,4,1,5,40,-3.79,01,0.00,06,-0.55,01,-3.38,01,21.41,01,27.79,01
2001,4,1,5,45,-2.97,01,0.00,06,-0.90,01,-2.43,01,21.18,01,28.25,01
2001,4,1,5,50,-0.33,01,0.11,06,-0.85,01,0.12,01,21.03,01,28.48,01
2001,4,1,5,55,5.85,01,6.36,06,1.91,01,6.31,01,21.22,01,27.50,01
2001,4,1,6,0,12.82,01,13.76,06,11.75,01,13.24,01,21.35,01,27.57,01
2001,4,1,6,5,20.45,01,21.88,06,32.91,01,19.80,01,21.18,01,28.30,01
2001,4,1,6,10,31.02,01,33.09,06,65.35,01,27.72,01,21.07,01,27.98,01
2001,4,1,6,15,45.08,01,47.55,06,105.01,01,36.90,01,21.23,01,27.75,01
2001,4,1,6,20,58.18,01,61.58,06,150.35,01,43.43,01,20.95,01,30.85,01
2001,4,1,6,25,71.01,01,74.78,06,186.66,01,48.64,01,19.62,01,35.30,01
2001,4,1,6,30,88.31,01,92.18,06,231.83,01,55.22,01,19.25,01,34.12,01
2001,4,1,6,35,107.86,01,112.43,06,278.65,01,62.62,01,20.05,01,29.55,01
2001,4,1,6,40,125.31,03,131.17,06,314.48,03,68.88,03,20.84,01,27.88,01
2001,4,1,6,45,143.19,03,149.96,06,346.70,03,74.61,03,21.09,01,27.91,01
2001,4,1,6,50,162.94,03,169.75,06,384.36,03,78.85,03,20.94,01,28.88,01
2001,4,1,6,55,184.17,03,191.29,06,425.07,03,82.64,03,20.94,01,28.57,01
2001,4,1,7,0,204.72,03,211.98,06,456.81,03,86.53,03,20.81,01,31.72,01
2001,4,1,7,5,224.21,03,231.30,06,480.13,03,90.37,03,20.50,01,31.70,01
2001,4,1,7,10,245.26,03,252.88,06,509.26,03,93.84,03,20.64,01,29.07,01
2001,4,1,7,15,266.51,03,274.82,06,537.40,03,96.96,03,21.24,01,27.55,01
2001,4,1,7,20,289.98,03,296.31,06,562.54,03,99.71,03,21.67,01,27.08,01
2001,4,1,7,25,312.91,03,316.45,06,583.57,03,101.78,03,21.66,01,28.75,01
2001,4,1,7,30,336.90,03,338.63,06,606.84,03,104.34,03,21.29,01,31.94,01
2001,4,1,7,35,360.05,03,360.16,06,626.51,03,106.96,03,21.09,01,31.30,01
2001,4,1,7,40,383.98,03,383.11,06,647.51,03,109.84,03,21.52,01,28.82,01
2001,4,1,7,45,403.11,03,401.54,06,656.42,03,112.89,03,21.96,01,26.90,01
2001,4,1,7,50,425.73,03,424.43,06,676.40,03,115.14,03,22.29,01,27.41,01
2001,4,1,7,55,445.94,03,445.15,06,689.60,03,117.90,03,22.64,01,28.18,01
2001,4,1,8,0,461.69,03,461.14,06,694.31,03,119.77,03,22.79,01,29.38,01
2001,4,1,8,5,484.00,03,483.12,06,710.51,03,121.79,03,23.02,01,32.39,01
2001,4,1,8,10,505.21,03,502.98,06,722.38,03,123.57,03,23.03,01,36.46,01
2001,4,1,8,15,524.76,03,522.02,06,733.43,03,124.76,03,23.16,01,37.01,01
2001,4,1,8,20,548.07,03,545.47,06,751.60,03,126.20,03,23.52,01,34.65,01
2001,4,1,8,25,567.41,03,565.34,06,761.52,03,128.39,03,24.12,01,33.26,01
2001,4,1,8,30,585.37,03,583.75,06,770.47,03,129.58,03,24.47,01,35.33,01
2001,4,1,8,35,604.29,03,603.12,06,781.38,03,130.46,03,24.53,01,36.95,01
2001,4,1,8,40,620.39,03,610.66,06,772.07,03,131.95,03,24.96,01,31.19,01
2001,4,1,8,45,642.73,03,639.83,06,794.98,03,135.09,03,25.90,01,27.11,01
2001,4,1,8,50,659.67,03,655.59,06,797.79,03,137.42,03,26.57,01,25.33,01
2001,4,1,8,55,677.06,03,671.80,06,802.78,03,138.92,03,26.70,01,24.83,01
2001,4,1,9,0,696.52,03,691.92,06,814.60,03,139.79,03,27.05,01,21.34,01
2001,4,1,9,5,715.68,03,710.91,06,823.89,03,141.20,03,27.47,01,20.33,01
2001,4,1,9,10,732.14,03,727.12,06,828.36,03,143.24,03,27.59,01,18.88,01
2001,4,1,9,15,747.55,03,740.89,06,830.28,03,144.81,03,27.76,01,17.54,01
2001,4,1,9,20,766.26,03,757.30,06,834.31,03,147.70,03,28.03,01,16.89,01
2001,4,1,9,25,780.47,03,770.49,06,834.96,03,150.07,03,28.25,01,16.61,01
2001,4,1,9,30,796.45,03,785.36,06,839.85,03,151.18,03,28.34,01,16.32,01
2001,4,1,9,35,812.17,03,800.72,06,845.95,03,152.01,03,28.52,01,16.12,01
2001,4,1,9,40,828.22,03,817.44,06,854.61,03,152.37,03,28.57,01,15.59,01
2001,4,1,9,45,841.58,03,831.09,06,858.62,03,153.44,03,28.65,01,15.78,01
2001,4,1,9,50,855.04,03,844.30,06,861.59,03,155.12,03,28.85,01,15.56,01
2001,4,1,9,55,866.67,03,855.87,06,862.83,03,156.82,03,29.05,01,16.02,01
2001,4,1,10,0,877.90,03,866.46,06,862.44,03,159.16,03,28.91,01,16.25,01
2001,4,1,10,5,890.78,03,878.78,06,866.18,03,160.14,03,28.93,01,16.26,01
2001,4,1,10,10,901.96,03,891.04,06,871.06,03,160.37,03,29.14,01,16.46,01
2001,4,1,10,15,916.53,03,905.19,06,878.20,03,160.81,03,29.29,01,15.86,01
2001,4,1,10,20,926.66,03,916.10,06,882.20,03,160.92,03,29.51,01,15.34,01
2001,4,1,10,25,934.38,03,923.34,06,880.95,03,162.17,03,29.68,01,14.81,01
2001,4,1,10,30,943.74,03,932.88,06,883.62,03,162.67,03,29.67,01,14.59,01
2001,4,1,10,35,952.61,03,941.72,06,885.97,03,163.06,03,29.76,01,14.66,01
2001,4,1,10,40,961.51,03,951.38,06,889.76,03,163.33,03,29.80,01,14.40,01
2001,4,1,10,45,969.54,03,957.70,06,889.94,03,163.78,03,29.58,01,14.87,01
2001,4,1,10,50,975.71,03,964.13,06,889.61,03,165.17,03,29.70,01,15.14,01
2001,4,1,10,55,983.78,03,973.02,06,894.96,03,164.26,03,29.93,01,15.06,01
2001,4,1,11,0,986.92,03,977.62,06,896.72,03,162.62,03,30.10,01,14.79,01
2001,4,1,11,5,996.58,03,988.67,06,907.22,03,159.81,03,30.48,01,14.33,01
2001,4,1,11,10,1003.02,03,994.55,06,910.66,03,158.59,03,30.55,01,13.77,01
2001,4,1,11,15,1002.13,03,992.86,06,903.42,03,160.00,03,30.62,01,14.21,01
2001,4,1,11,20,1009.76,03,998.76,06,905.19,03,161.10,03,30.41,01,13.83,01
2001,4,1,11,25,1009.24,03,998.56,06,901.45,03,161.59,03,30.46,01,13.86,01
2001,4,1,11,30,1016.75,03,1004.74,06,905.52,03,161.59,03,30.51,01,13.68,01
2001,4,1,11,35,1018.08,03,1006.24,06,904.28,03,162.24,03,30.45,01,13.96,01
2001,4,1,11,40,1017.73,03,1005.26,06,899.33,03,164.27,03,30.59,01,13.81,01
2001,4,1,11,45,1015.50,03,1003.64,06,896.95,03,163.65,03,30.70,01,13.99,01
2001,4,1,11,50,1021.71,03,1009.25,06,902.72,03,163.01,03,30.93,01,13.53,01
2001,4,1,11,55,1025.25,03,1011.53,06,905.42,03,162.30,03,30.67,01,13.66,01
2001,4,1,12,0,1027.02,03,1011.83,06,905.64,03,162.33,03,30.55,01,13.61,01
2001,4,1,12,5,1026.13,03,1011.67,06,906.10,03,162.05,03,30.65,01,13.90,01
2001,4,1,12,10,1024.83,03,1010.99,06,905.30,03,162.83,03,30.86,01,13.68,01
2001,4,1,12,15,1019.61,03,1006.08,06,901.24,03,162.82,03,30.90,01,13.62,01
2001,4,1,12,20,1021.73,03,1006.52,06,903.02,03,163.08,03,30.84,01,13.73,01
2001,4,1,12,25,1018.44,03,1003.54,06,901.21,03,163.66,03,30.76,01,14.03,01
2001,4,1,12,30,1017.79,03,1002.79,06,902.64,03,163.83,03,30.87,01,14.04,01
2001,4,1,12,35,1012.24,03,997.52,06,899.48,03,164.13,03,30.71,01,14.54,01
2001,4,1,12,40,1008.25,03,994.27,06,898.86,03,164.46,03,30.98,01,14.40,01
2001,4,1,12,45,1006.08,03,991.30,06,898.57,03,165.15,03,31.20,01,14.19,01
2001,4,1,12,50,995.40,03,979.85,06,889.31,03,165.94,03,31.14,01,14.04,01
2001,4,1,12,55,987.01,03,970.87,06,884.49,03,165.45,03,31.02,01,13.98,01
2001,4,1,13,0,985.14,03,969.63,06,890.13,03,163.55,03,31.05,01,14.20,01
2001,4,1,13,5,980.00,03,965.93,06,894.25,03,160.99,03,31.14,01,14.21,01
2001,4,1,13,10,972.28,03,956.85,06,888.71,03,162.11,03,31.05,01,14.54,01
2001,4,1,13,15,964.44,03,948.26,06,884.38,03,162.93,03,31.07,01,14.48,01
2001,4,1,13,20,955.10,03,938.64,06,880.36,03,162.75,03,31.25,01,14.50,01
2001,4,1,13,25,946.24,03,929.42,06,877.86,03,161.95,03,31.37,01,14.74,01
2001,4,1,13,30,936.99,03,916.98,06,870.10,03,162.79,03,31.37,01,14.62,01
2001,4,1,13,35,926.06,03,907.73,06,868.48,03,161.78,03,31.34,01,14.66,01
2001,4,1,13,40,915.10,03,899.18,06,868.85,03,160.09,03,31.55,01,14.77,01
2001,4,1,13,45,904.52,03,887.22,06,863.83,03,159.88,03,31.50,01,14.93,01
2001,4,1,13,50,893.39,03,874.93,06,857.74,03,160.46,03,31.79,01,15.26,01
2001,4,1,13,55,882.34,03,861.24,06,851.05,03,160.36,03,31.79,01,15.17,01
2001,4,1,14,0,866.08,03,845.12,06,844.47,03,157.93,03,31.93,01,15.19,01
2001,4,1,14,5,859.04,03,835.65,06,843.58,03,157.76,03,32.09,01,15.21,01
2001,4,1,14,10,845.16,03,822.14,06,835.59,03,159.46,03,31.82,01,15.53,01
2001,4,1,14,15,830.34,03,807.15,06,826.29,03,160.84,03,31.84,01,15.53,01
2001,4,1,14,20,813.39,03,792.02,06,821.42,03,158.76,03,31.94,01,15.62,01
2001,4,1,14,25,801.55,03,781.04,06,823.56,03,155.68,03,31.71,01,15.82,01
2001,4,1,14,30,790.40,03,768.64,06,820.49,03,155.40,03,31.59,01,16.35,01
2001,4,1,14,35,773.77,03,751.44,06,812.67,03,154.02,03,31.95,01,15.97,01
2001,4,1,14,40,759.66,03,735.46,06,806.64,03,152.65,03,31.86,01,15.58,01
2001,4,1,14,45,745.37,03,720.92,06,802.02,03,151.83,03,32.08,01,15.19,01
2001,4,1,14,50,732.86,03,707.37,06,798.93,03,151.06,03,31.99,01,15.18,01
2001,4,1,14,55,714.80,03,689.47,06,790.34,03,149.87,03,31.94,01,15.06,01
2001,4,1,15,0,700.96,03,676.78,06,790.85,03,147.81,03,31.91,01,14.97,01
2001,4,1,15,5,682.80,03,659.14,06,784.09,03,145.81,03,32.07,01,14.63,01
2001,4,1,15,10,661.93,03,639.44,06,778.30,03,141.17,03,32.00,01,14.56,01
2001,4,1,15,15,647.25,03,624.82,06,777.84,03,138.33,03,32.24,01,14.59,01
2001,4,1,15,20,635.42,03,612.70,06,784.21,03,134.02,03,32.06,01,14.60,01
2001,4,1,15,25,617.88,03,595.38,06,781.78,03,130.16,03,32.05,01,14.54,01
2001,4,1,15,30,599.79,03,576.65,06,774.93,03,127.59,03,32.21,01,14.57,01
2001,4,1,15,35,583.05,11,558.41,06,767.62,10,125.74,10,32.02,01,14.51,01
2001,4,1,15,40,564.76,03,541.16,06,763.00,03,123.37,03,32.17,01,14.54,01
2001,4,1,15,45,544.54,11,521.81,06,757.48,10,119.42,10,32.10,01,14.56,01
2001,4,1,15,50,528.05,11,505.97,06,754.04,10,117.90,10,32.17,01,14.79,01
2001,4,1,15,55,507.13,03,485.85,06,743.43,03,115.73,03,32.22,01,14.54,01
2001,4,1,16,0,485.75,11,464.12,06,728.55,10,113.81,10,31.80,01,14.68,01
2001,4,1,16,5,464.71,03,444.24,06,720.18,03,110.36,03,32.09,01,14.70,01
2001,4,1,16,10,369.91,03,353.10,06,562.93,03,101.93,03,32.09,01,14.70,01
2001,4,1,16,15,229.26,03,219.53,06,299.69,03,91.10,03,31.54,01,14.53,01
2001,4,1,16,20,309.69,03,293.60,06,465.33,03,102.47,03,31.34,01,14.65,01
2001,4,1,16,25,304.73,03,288.13,06,448.46,03,111.99,03,31.29,01,14.67,01
2001,4,1,16,30,208.83,03,200.53,06,236.19,03,112.05,03,31.34,01,14.86,01
2001,4,1,16,35,180.10,03,173.54,06,159.50,03,116.71,03,31.14,01,15.01,01
2001,4,1,16,40,188.07,03,180.96,06,153.76,03,129.01,03,31.09,01,15.00,01
2001,4,1,16,45,289.87,03,274.74,06,400.03,03,147.03,03,31.17,01,14.95,01
2001,4,1,16,50,345.91,15,325.90,06,560.15,14,157.56,14,31.34,01,15.11,01
2001,4,1,16,55,309.72,15,292.05,06,539.39,14,140.11,14,31.44,01,14.72,01
2001,4,1,17,0,258.48,11,243.98,06,513.15,10,109.16,10,31.42,01,14.67,01
2001,4,1,17,5,209.79,03,199.21,06,474.97,03,83.47,03,31.35,01,14.79,01
2001,4,1,17,10,181.36,03,172.50,06,457.84,03,69.70,03,31.23,01,14.76,01
2001,4,1,17,15,154.83,03,148.12,06,425.61,03,60.73,03,31.25,01,15.05,01
2001,4,1,17,20,135.24,03,129.95,06,399.94,03,55.53,03,31.20,01,14.81,01
2001,4,1,17,25,116.68,03,112.01,06,359.99,03,51.98,03,30.91,01,15.01,01
2001,4,1,17,30,98.00,01,94.25,06,321.82,01,46.81,01,30.72,01,15.30,01
2001,4,1,17,35,78.60,01,76.10,06,276.19,01,40.73,01,30.63,01,15.29,01
2001,4,1,17,40,57.03,01,55.91,06,201.69,01,33.97,01,30.48,01,14.77,01
2001,4,1,17,45,30.79,01,31.20,06,100.51,01,22.20,01,30.23,01,14.79,01
2001,4,1,17,50,25.22,01,25.06,06,110.10,01,17.31,01,30.01,01,14.89,01
2001,4,1,17,55,18.09,01,17.94,06,64.20,01,14.63,01,29.78,01,15.13,01
2001,4,1,18,0,9.48,01,9.53,06,19.93,01,8.87,01,29.62,01,15.09,01
2001,4,1,18,5,2.96,01,2.61,06,4.01,01,2.55,01,29.42,01,15.38,01
2001,4,1,18,10,-0.76,01,0.00,06,-0.95,01,-1.06,01,29.15,01,15.60,01
2001,4,1,18,15,-3.52,01,0.00,06,-1.48,01,-3.78,01,28.95,01,15.50,01
2001,4,1,18,20,-5.49,01,0.00,06,-1.56,01,-5.96,01,28.71,01,15.65,01
2001,4,1,18,25,-7.72,01,0.00,06,-2.03,01,-8.21,01,28.34,01,16.37,01
2001,4,1,18,30,-8.31,01,0.00,06,-2.31,01,-9.14,01,27.95,01,16.88,01
2001,4,1,18,35,-8.07,01,0.00,06,-1.71,01,-8.67,01,27.77,01,16.64,01
2001,4,1,18,40,-7.37,01,0.00,06,-1.45,01,-7.90,01,27.71,01,16.64,01
2001,4,1,18,45,-8.04,01,0.00,06,-1.63,01,-8.69,01,27.44,01,17.20,01
2001,4,1,18,50,-7.38,01,0.00,06,-1.49,01,-7.91,01,27.19,01,17.52,01
2001,4,1,18,55,-7.95,01,0.00,06,-1.62,01,-8.47,01,26.90,01,18.20,01
2001,4,1,19,0,-8.21,01,0.00,06,-1.74,01,-8.71,01,26.58,01,18.69,01
2001,4,1,19,5,-7.90,01,0.00,06,-1.83,01,-8.40,01,26.26,01,19.13,01
2001,4,1,19,10,-7.08,01,0.00,06,-1.30,01,-7.66,01,26.10,01,18.88,01
2001,4,1,19,15,-5.36,01,0.00,06,-0.22,01,-6.01,01,26.22,01,18.39,01
2001,4,1,19,20,-4.89,01,0.00,06,-0.10,01,-5.71,01,26.23,01,18.38,01
2001,4,1,19,25,-5.63,01,0.00,06,-0.22,01,-6.12,01,26.14,01,18.58,01
2001,4,1,19,30,-5.67,01,0.00,06,-0.52,01,-6.54,01,25.98,01,18.80,01
2001,4,1,19,35,-5.64,01,0.00,06,-0.28,01,-6.36,01,25.89,01,18.50,01
2001,4,1,19,40,-4.89,01,0.00,06,0.53,01,-5.41,01,25.97,01,18.07,01
2001,4,1,19,45,-4.78,01,0.00,06,0.29,01,-5.43,01,25.96,01,18.07,01
2001,4,1,19,50,-5.75,01,0.00,06,-0.20,01,-6.26,01,25.82,01,18.18,01
2001,4,1,19,55,-5.53,01,0.00,06,0.12,01,-6.19,01,25.75,01,17.82,01
2001,4,1,20,0,-4.78,01,0.00,06,0.24,01,-5.71,01,25.82,01,17.70,01
2001,4,1,20,5,-5.55,01,0.00,06,-0.33,01,-6.14,01,25.68,01,18.14,01
2001,4,1,20,10,-5.84,01,0.00,06,-1.00,01,-6.52,01,25.32,01,18.93,01
2001,4,1,20,15,-6.05,01,0.00,06,-1.02,01,-6.60,01,24.99,01,18.76,01
2001,4,1,20,20,-5.67,01,0.00,06,-0.59,01,-6.32,01,24.90,01,18.55,01
2001,4,1,20,25,-5.11,01,0.00,06,0.46,01,-5.65,01,25.10,01,17.36,01
2001,4,1,20,30,-5.18,01,0.00,06,0.21,01,-5.56,01,25.16,01,17.50,01
2001,4,1,20,35,-5.60,01,0.00,06,-0.11,01,-6.07,01,24.94,01,17.75,01
2001,4,1,20,40,-5.26,01,0.00,06,0.19,01,-5.77,01,24.93,01,17.14,01
2001,4,1,20,45,-4.77,01,0.00,06,0.41,01,-5.25,01,25.00,01,16.84,01
2001,4,1,20,50,-4.77,01,0.00,06,0.59,01,-5.20,01,25.01,01,16.58,01
2001,4,1,20,55,-5.56,01,0.00,06,-0.33,01,-6.32,01,24.87,01,17.26,01
2001,4,1,21,0,-6.58,01,0.00,06,-1.00,01,-7.43,01,24.42,01,17.99,01
2001,4,1,21,5,-6.40,01,0.00,06,-0.42,01,-6.82,01,24.27,01,17.55,01
2001,4,1,21,10,-5.56,01,0.00,06,0.38,01,-5.89,01,24.49,01,16.89,01
2001,4,1,21,15,-6.01,01,0.00,06,-0.10,01,-6.46,01,24.50,01,17.41,01
2001,4,1,21,20,-6.55,01,0.00,06,-0.48,01,-6.92,01,24.19,01,17.72,01
2001,4,1,21,25,-6.48,01,0.00,06,-0.47,01,-6.56,01,24.05,01,17.93,01
2001,4,1,21,30,-6.51,01,0.00,06,-0.61,01,-6.72,01,23.90,01,18.40,01
2001,4,1,21,35,-6.49,01,0.00,06,-0.44,01,-6.62,01,23.75,01,18.00,01
2001,4,1,21,40,-6.12,01,0.00,06,-0.01,01,-6.33,01,23.78,01,17.51,01
2001,4,1,21,45,-5.62,01,0.00,06,0.50,01,-5.79,01,23.94,01,16.81,01
2001,4,1,21,50,-5.60,01,0.00,06,0.61,01,-5.50,01,24.11,01,16.55,01
2001,4,1,21,55,-5.92,01,0.00,06,0.31,01,-5.91,01,24.11,01,16.59,01
2001,4,1,22,0,-6.12,01,0.00,06,0.01,01,-6.02,01,24.04,01,16.50,01
2001,4,1,22,5,-5.70,01,0.00,06,0.44,01,-5.69,01,24.03,01,16.21,01
2001,4,1,22,10,-5.45,01,0.00,06,0.41,01,-5.28,01,24.15,01,15.72,01
2001,4,1,22,15,-5.44,01,0.00,06,0.38,01,-5.01,01,24.16,01,15.59,01
2001,4,1,22,20,-5.43,01,0.00,06,0.44,01,-5.19,01,24.16,01,15.50,01
2001,4,1,22,25,-5.81,01,0.00,06,0.18,01,-6.11,01,24.08,01,15.57,01
2001,4,1,22,30,-6.08,01,0.00,06,0.10,01,-6.29,01,24.04,01,15.62,01
2001,4,1,22,35,-6.27,01,0.00,06,0.02,01,-6.27,01,24.01,01,15.55,01
2001,4,1,22,40,-6.51,01,0.00,06,-0.16,01,-6.62,01,23.92,01,15.61,01
2001,4,1,22,45,-5.97,01,0.00,06,0.01,01,-6.32,01,23.89,01,15.52,01
2001,4,1,22,50,-5.77,01,0.00,06,-0.22,01,-6.45,01,23.80,01,15.96,01
2001,4,1,22,55,-6.41,01,0.00,06,-0.57,01,-7.21,01,23.72,01,16.25,01
2001,4,1,23,0,-7.42,01,0.00,06,-1.09,01,-8.20,01,23.59,01,16.42,01
2001,4,1,23,5,-7.20,01,0.00,06,-1.01,01,-7.80,01,23.57,01,16.38,01
2001,4,1,23,10,-6.07,01,0.00,06,-0.53,01,-6.77,01,23.68,01,16.23,01
2001,4,1,23,15,-5.45,01,0.00,06,-0.09,01,-6.13,01,23.77,01,15.99,01
2001,4,1,23,20,-4.77,01,0.00,06,0.55,01,-5.00,01,23.95,01,15.81,01
2001,4,1,23,25,-4.77,01,0.00,06,0.57,01,-4.74,01,23.93,01,16.31,01
2001,4,1,23,30,-4.77,01,0.00,06,0.40,01,-4.75,01,23.77,01,16.94,01
2001,4,1,23,35,-4.78,01,0.00,06,0.19,01,-4.80,01,23.62,01,17.20,01
2001,4,1,23,40,-4.88,01,0.00,06,0.03,01,-4.74,01,23.48,01,17.44,01
2001,4,1,23,45,-5.01,01,0.00,06,-0.05,01,-4.82,01,23.35,01,17.54,01
2001,4,1,23,50,-4.77,01,0.00,06,-0.04,01,-4.93,01,23.31,01,17.50,01
2001,4,1,23,55,-4.77,01,0.00,06,0.23,01,-4.88,01,23.37,01,17.36,01
2001,4,2,0,0,-4.97,01,0.00,06,0.20,01,-5.27,01,23.38,01,17.58,01
2001,4,2,0,5,-5.75,01,0.00,06,-0.06,01,-6.22,01,23.27,01,17.85,01
2001,4,2,0,10,-5.83,01,0.00,06,-0.33,01,-6.46,01,23.24,01,17.98,01
2001,4,2,0,15,-6.09,01,0.00,06,-0.62,01,-6.76,01,23.14,01,17.84,01
2001,4,2,0,20,-6.46,01,0.00,06,-0.89,01,-6.92,01,23.14,01,17.44,01
2001,4,2,0,25,-5.39,01,0.00,06,-0.18,01,-5.91,01,23.25,01,17.34,01
2001,4,2,0,30,-4.77,01,0.00,06,0.03,01,-5.22,01,23.29,01,17.76,01
2001,4,2,0,35,-4.77,01,0.00,06,0.31,01,-5.13,01,23.38,01,17.90,01
2001,4,2,0,40,-4.75,01,0.00,06,0.47,01,-5.01,01,23.41,01,18.33,01
2001,4,2,0,45,-4.77,01,0.00,06,0.53,01,-5.21,01,23.38,01,18.59,01
2001,4,2,0,50,-4.77,01,0.00,06,0.65,01,-5.00,01,23.47,01,18.44,01
2001,4,2,0,55,-4.77,01,0.00,06,0.54,01,-4.99,01,23.48,01,18.51,01
2001,4,2,1,0,-4.78,01,0.00,06,0.36,01,-5.41,01,23.41,01,18.60,01
2001,4,2,1,5,-5.17,01,0.00,06,0.23,01,-5.83,01,23.38,01,18.79,01
2001,4,2,1,10,-5.14,01,0.00,06,0.11,01,-5.79,01,23.37,01,19.18,01
2001,4,2,1,15,-5.20,01,0.00,06,0.02,01,-5.75,01,23.27,01,19.42,01
2001,4,2,1,20,-5.21,01,0.00,06,-0.12,01,-5.79,01,23.19,01,19.66,01
2001,4,2,1,25,-5.31,01,0.00,06,-0.18,01,-5.80,01,23.07,01,20.14,01
2001,4,2,1,30,-4.91,01,0.00,06,0.12,01,-5.25,01,23.07,01,20.51,01
2001,4,2,1,35,-4.77,01,0.00,06,0.31,01,-4.83,01,23.08,01,20.60,01
2001,4,2,1,40,-4.77,01,0.00,06,0.55,01,-4.57,01,23.16,01,20.84,01
2001,4,2,1,45,-4.91,01,0.00,06,0.07,01,-4.80,01,22.99,01,21.47,01
2001,4,2,1,50,-5.51,01,0.00,06,-0.31,01,-5.32,01,22.68,01,22.60,01
2001,4,2,1,55,-5.89,01,0.00,06,-0.82,01,-5.77,01,22.34,01,23.42,01
2001,4,2,2,0,-6.19,01,0.00,06,-0.90,01,-6.04,01,22.08,01,23.52,01
2001,4,2,2,5,-6.44,01,0.00,06,-0.50,01,-6.30,01,22.01,01,23.16,01
2001,4,2,2,10,-6.08,01,0.00,06,-0.01,01,-6.07,01,22.10,01,22.70,01
2001,4,2,2,15,-6.08,01,0.00,06,0.34,01,-6.12,01,22.28,01,22.22,01
2001,4,2,2,20,-7.05,01,0.00,06,-0.13,01,-7.16,01,22.38,01,22.68,01
2001,4,2,2,25,-8.28,01,0.00,06,-2.21,01,-8.21,01,21.44,01,27.44,01
2001,4,2,2,30,-7.80,01,0.00,06,-1.48,01,-7.77,01,20.92,01,26.43,01
2001,4,2,2,35,-7.23,01,0.00,06,-0.83,01,-7.25,01,21.30,01,24.60,01
2001,4,2,2,40,-5.56,01,0.00,06,0.28,01,-5.78,01,21.94,01,22.98,01
2001,4,2,2,45,-3.91,01,0.00,06,1.62,01,-3.93,01,22.45,01,21.80,01
2001,4,2,2,50,-3.16,01,0.00,06,2.74,01,-2.94,01,22.75,01,21.02,01
2001,4,2,2,55,-3.58,01,0.00,06,2.47,01,-2.92,01,22.86,01,20.88,01
2001,4,2,3,0,-3.98,01,0.00,06,1.72,01,-3.11,01,22.70,01,21.16,01
2001,4,2,3,5,-3.91,01,0.00,06,1.25,01,-3.16,01,22.61,01,21.37,01
2001,4,2,3,10,-4.40,01,0.00,06,0.12,01,-3.81,01,22.37,01,22.50,01
2001,4,2,3,15,-5.26,01,0.00,06,-1.16,01,-5.19,01,21.85,01,24.30,01
2001,4,2,3,20,-6.02,01,0.00,06,-1.09,01,-6.23,01,21.59,01,24.65,01
2001,4,2,3,25,-7.03,01,0.00,06,-0.93,01,-7.39,01,21.57,01,24.44,01
2001,4,2,3,30,-5.71,01,0.00,06,0.11,01,-6.10,01,21.83,01,24.17,01
2001,4,2,3,35,-4.62,01,0.00,06,1.13,01,-4.51,01,22.20,01,23.45,01
2001,4,2,3,40,-4.34,01,0.00,06,1.40,01,-3.92,01,22.39,01,23.09,01
2001,4,2,3,45,-3.99,01,0.00,06,1.70,01,-3.64,01,22.61,01,22.46,01
2001,4,2,3,50,-4.21,01,0.00,06,1.23,01,-3.88,01,22.65,01,22.37,01
2001,4,2,3,55,-4.81,01,0.00,06,0.19,01,-4.64,01,22.41,01,22.92,01
2001,4,2,4,0,-5.11,01,0.00,06,-0.07,01,-4.86,01,22.21,01,23.23,01
2001,4,2,4,5,-5.20,01,0.00,06,-0.17,01,-4.91,01,22.14,01,23.46,01
2001,4,2,4,10,-5.59,01,0.00,06,-0.19,01,-5.48,01,22.13,01,23.48,01
2001,4,2,4,15,-5.87,01,0.00,06,-0.12,01,-6.00,01,22.19,01,23.49,01
2001,4,2,4,20,-6.67,01,0.00,06,-0.81,01,-7.04,01,21.92,01,24.14,01
2001,4,2,4,25,-6.30,01,0.00,06,-0.47,01,-6.72,01,21.83,01,24.32,01
2001,4,2,4,30,-4.96,01,0.00,06,0.51,01,-5.14,01,22.05,01,23.87,01
2001,4,2,4,35,-4.47,01,0.00,06,0.83,01,-4.29,01,22.24,01,23.66,01
2001,4,2,4,40,-4.67,01,0.00,06,0.75,01,-4.37,01,22.27,01,23.52,01
2001,4,2,4,45,-4.78,01,0.00,06,0.64,01,-4.69,01,22.39,01,23.05,01
2001,4,2,4,50,-5.18,01,0.00,06,0.45,01,-5.25,01,22.44,01,22.80,01
2001,4,2,4,55,-5.04,01,0.00,06,0.39,01,-5.40,01,22.48,01,22.65,01
2001,4,2,5,0,-4.85,01,0.00,06,0.10,01,-5.42,01,22.37,01,22.88,01